Regional Weather Roundup
Issued by NWS

Home | Current Version | Previous Version | Text Only | Print | Product List | Glossary Off
Versions: 1 2 3 4 5 6 7 8 9 10 11 12 13 14 15 16 17 18 19 20 21 22 23 24 25 26 27 28 29 30 31 32 33 34 35 36 37 38 39 40 41 42 43 44 45 46 47 48 49 50

000
ASUS45 KTFX 290410
RWRMT
MONTANA REGIONAL WEATHER ROUNDUP
NATIONAL WEATHER SERVICE GREAT FALLS MT
1000 PM MDT THU MAY 28 2015

NOTE: "FAIR" INDICATES FEW OR NO CLOUDS BELOW 12000 FEET WITH NO
SIGNIFICANT WEATHER AND/OR OBSTRUCTIONS TO VISIBILITY.

MTZ001>007-043-290500-
WEST OF THE DIVIDE

CITY           SKY/WX    TMP DP  RH WIND       PRES   REMARKS
KALISPELL      CLOUDY    57  42  57 N10       30.19R
MISSOULA       MOCLDY    60  45  57 E12       30.20R
BUTTE          CLOUDY    50  42  74 CALM      30.28R
MULLAN PASS    CLOUDY    46  43  89 SE10G17   30.25S
DEER LODGE       N/A     50  45  81 N7        30.34R
EUREKA           N/A     57  48  72 CALM      30.19R
HAMILTON         N/A     57  50  77 SW6       30.20R
LIBBY            N/A     55  54  94 CALM      30.20F
PLAINS           N/A     58  50  75 E5        30.18R
RONAN            N/A     59  52  77 E5        30.22R
THOMPSON FALLS   N/A     59  54  83 CALM      30.20R
$$

MTZ008-052>055-290500-
SOUTHWEST MONTANA

CITY           SKY/WX    TMP DP  RH WIND       PRES   REMARKS
BOZEMAN        MOCLDY    49  47  93 S6        30.25R
DILLON         MOCLDY    52  45  77 CALM      30.25R
W YELLOWSTONE  CLOUDY    46  39  76 N7        30.27R
THREE FORKS      N/A     55 -13   6 N6        30.23R
$$

MTZ009-010-012-014-046-048-049-054-290500-
EAST SLOPES AND CENTRAL MONTANA

CITY           SKY/WX    TMP DP  RH WIND       PRES   REMARKS
CUT BANK       CLOUDY    46  41  82 N8        30.33R
GREAT FALLS    LGT RAIN  46  45  96 N14       30.31R FOG
MALMSTROM AFB  LGT RAIN  47  46  98 N10       30.32R FOG
HELENA         CLOUDY    51  43  74 NW8       30.30R
CONRAD           N/A     47  46  96 NW8       30.32R
$$

MTZ011-013-016-021-045-047-050-051-290500-
NORTH CENTRAL MONTANA

CITY           SKY/WX    TMP DP  RH WIND       PRES   REMARKS
HAVRE          CLOUDY    51  44  77 CALM      30.28R
LEWISTOWN      CLOUDY    51  47  86 NE10      30.25R
N BAR RANCH    CLOUDY    48  48 100 N8G18     30.26R FOG
CHINOOK          N/A     48  45  87 CALM      30.28R
FORT BENTON      N/A     50  45  81 NW9       30.32R
$$

MTZ017>020-022>027-061-062-290500-
NORTHEAST MONTANA

CITY           SKY/WX    TMP DP  RH WIND       PRES   REMARKS
GLASGOW        CLOUDY    52  42  69 N15       30.19R
JORDAN           N/A     54  49  83 N17G25    30.18R
SIDNEY         PTCLDY    54  43  66 N18G24    30.11R
WOLF POINT     MOCLDY    52  42  69 NE9       30.18R
MALTA            N/A     52  40  63 N1        30.20R
PLENTYWOOD       N/A     46  37  71 N24       30.14R
POPLAR           N/A     52  41  66 N15G21    30.17R
SCOBEY           N/A     45  36  70 N9        30.15R
$$

MTZ028>42-056>058-290500-
SOUTHCENTRAL AND SOUTHEAST MONTANA

CITY           SKY/WX    TMP DP  RH WIND       PRES   REMARKS
BAKER          CLOUDY    57  50  77 N18G28    30.05R
BILLINGS       LGT RAIN  56  51  84 N8        30.19R
LIVINGSTON     LGT RAIN  50  47  89 SW3       30.25R
MILES CITY     CLOUDY    58  52  80 N20G28    30.09R
BIG TIMBER       N/A     52  48  87 SW5       30.26R
EKALAKA          N/A     54  50  86 N12       30.04R
LAUREL           N/A     53  49  86 S2        30.17R
ROUNDUP          N/A     54  47  77 S13       30.11R
$$

REGIONAL REPORTS...DAKOTAS

CITY           SKY/WX    TMP DP  RH WIND       PRES   REMARKS
WILLISTON      CLOUDY    52  43  71 N24G32    30.11R
MINOT          CLOUDY    52  46  80 NW22G32   30.01R
DICKINSON      CLOUDY    61  53  75 N18       29.98R
BEACH          CLOUDY    57  55  94 N24G33    30.06R
CROSBY         CLOUDY    48  46  93 N21       30.14R
WATFORD CITY   CLOUDY    54  48  82 N25G31    30.05R
BISMARCK       CLOUDY    66  56  70 N13G18    29.92R
GRAND FORKS    CLOUDY    63  61  93 N8        29.83R
FARGO          LGT RAIN  64  61  90 S8        29.84R
BUFFALO SD       N/A     57  54  89 NW5       29.96R
RAPID CITY     CLOUDY    57  49  74 NW15      29.97R
$$

REGIONAL REPORTS...WYOMING/IDAHO/WASHINGTON

CITY           SKY/WX    TMP DP  RH WIND       PRES   REMARKS
GILLETTE       CLOUDY    53  48  83 NW12      30.11R
SHERIDAN       CLOUDY    54  48  80 NW17G24   30.16R
BUFFALO WY     MOCLDY    52  45  77 NW25G38   30.15R
CODY           CLOUDY    50  45  81 N12       30.22R
YELLOWSTONE LA   N/A     41  37  86 VRB3      30.31R
IDAHO FALLS    PTCLDY    50  47  89 N5        30.20R
SALMON         PTCLDY    54  45  71 CALM      30.18R
BOISE          CLEAR     72  41  32 CALM      30.04R
SPOKANE        MOCLDY    64  50  60 E9        30.08S THUNDER
$$

REGIONAL REPORTS...ALBERTA

CITY           SKY/WX    TMP DP  RH WIND       PRES   REMARKS
EDMONTON       CLEAR     45  25  45 NE7       30.31R
CALGARY        MOCLDY    50  41  71 S7        30.30R
LETHBRIDGE     PTCLDY    46  43  87 SW7       30.32R
MEDICINE HAT   CLEAR     50  36  57 NE7       30.29R
$$

REGIONAL REPORTS...SASKATCHEWAN

CITY           SKY/WX    TMP DP  RH WIND       PRES   REMARKS
SWIFT CURRENT  CLEAR     41  28  60 N9        30.26R
REGINA         CLEAR     43  32  65 NE9       30.22R
SASKATOON      CLEAR     41  28  60 NE9       30.31R
$$


USA.gov is the U.S. government's official web portal to all federal, state and local government web resources and services.